Tracking 29892 objects as of 21-Nov-2024
HD Live streaming from Space Station
objects crossing your sky now

STARLINK-3983

Track STARLINK-3983 now!
10-day predictions
STARLINK-3983 is classified as:


NORAD ID: 52618
Int'l Code: 2022-052W
Perigee: 545.9 km
Apogee: 547.9 km
Inclination: 53.2 °
Period: 95.4 minutes
Semi major axis: 6917 km
RCS: Unknown
Launch date: May 14, 2022
Source: United States (US)
Launch site: AIR FORCE EASTERN TEST RANGE (AFETR)
Your satellite tracking list
Your tracking list is empty




NASA's NSSDC Master Catalog

Two Line Element Set (TLE):
1 52618U 22052W   24326.13221959  .00000087  00000-0  23550-4 0  9996
2 52618  53.2163 234.9945 0001422  81.4956 278.6197 15.08834928139878
Source of the keplerian elements: AFSPC